Location: Molveno
(46.1500°N, 10.9667°E)
Time: 17:14:20
(UTC+00:00)

Cosmos 2181 Rocket - Pass Details

Date: 05 July 2020
Orbit: 951 x 1015 km, 82.9° (Epoch: 10 August)

Event Time Altitude Azimuth Distance (km) Brightness Sun altitude
Rises 21:20:43 0° 348° (NNW) 3,734 8.6 -16.0°
Reaches altitude 10° 21:23:18 10° 344° (NNW) 2,772 7.6 -16.2°
Maximum altitude 21:29:29 57° 268° (W) 1,148 4.5 -16.7°
Enters shadow 21:34:17 17° 195° (SSW) 2,257 5.5 -17.1°
